DW4121 Weather Reports


Display with metric or nautical units.
time (UTC)temp
F
wind
direction
speed
MPH
gust
MPH
rain 1hr
in
rain 24hr
in
rain mn
in
humidity
%
barometer
mb
20260510124104 56 111 6.0 12.0 0.00 0.00 0.00 67 1015.6
20260510122604 56 106 10.0 18.0 0.00 0.00 0.00 67 1015.6
20260510121604 56 107 7.0 20.0 0.00 0.00 0.00 66 1015.6
20260510121104 56 112 6.0 17.0 0.00 0.00 0.00 66 1015.6
20260510120104 56 116 9.0 20.0 0.00 0.00 0.00 67 1015.7
20260510115604 56 106 9.0 18.0 0.00 0.00 0.00 67 1015.7
20260510115103 56 72 7.0 14.0 0.00 0.00 0.00 68 1015.8
20260510113604 56 83 7.0 13.0 0.00 0.00 0.00 67 1015.9
20260510112104 56 101 5.0 13.0 0.00 0.00 0.00 66 1016.1
20260510111604 57 84 9.0 15.0 0.00 0.00 0.00 66 1016.2
20260510110603 57 108 7.0 15.0 0.00 0.00 0.00 65 1016.3
20260510105604 57 124 9.0 20.0 0.00 0.00 0.00 66 1016.4
20260510103604 58 114 8.0 21.0 0.00 0.00 0.00 64 1016.3
20260510102604 57 121 8.0 17.0 0.00 0.00 0.00 65 1016.3
20260510102104 57 114 10.0 20.0 0.00 0.00 0.00 65 1016.3
20260510100606 56 126 10.0 22.0 0.00 0.00 0.00 68 1016.4
20260510095603 55 121 7.0 15.0 0.00 0.00 0.00 70 1016.4
20260510095103 55 100 9.0 17.0 0.00 0.00 0.00 70 1016.4
20260510094104 55 121 9.0 17.0 0.00 0.00 0.00 70 1016.5
20260510093604 55 108 8.0 18.0 0.00 0.00 0.00 71 1016.5
20260510093103 55 112 9.0 16.0 0.00 0.00 0.00 71 1016.5
20260510091604 54 61 6.0 15.0 0.00 0.00 0.00 72 1016.5
20260510091104 54 113 9.0 16.0 0.00 0.00 0.00 72 1016.6
20260510090104 54 113 12.0 26.0 0.00 0.00 0.00 72 1016.8
20260510085103 54 106 7.0 14.0 0.00 0.00 0.00 73 1016.8
20260510084104 54 109 10.0 17.0 0.00 0.00 0.00 74 1016.9
20260510083604 54 122 10.0 20.0 0.00 0.00 0.00 75 1016.9
20260510083104 53 104 7.0 22.0 0.00 0.00 0.00 75 1016.9
20260510082604 53 95 7.0 15.0 0.00 0.00 0.00 76 1017.0
20260510082104 53 109 8.0 18.0 0.00 0.00 0.00 76 1017.0
20260510081603 53 95 8.0 17.0 0.00 0.00 0.00 76 1017.0
20260510080604 53 119 10.0 22.0 0.00 0.00 0.00 77 1017.0
20260510080103 52 95 7.0 15.0 0.00 0.00 0.00 77 1017.0
20260510075604 52 116 10.0 21.0 0.00 0.00 0.00 78 1016.9
20260510075104 52 114 7.0 14.0 0.00 0.00 0.00 78 1016.9
20260510074604 52 130 7.0 21.0 0.00 0.00 0.00 78 1016.9
20260510070603 51 124 9.0 20.0 0.00 0.00 0.00 80 1016.9
20260510065103 51 116 6.0 13.0 0.00 0.00 0.00 81 1016.9
20260510062103 50 116 9.0 17.0 0.00 0.00 0.00 82 1016.7
20260510061105 50 124 6.0 12.0 0.00 0.00 0.00 83 1016.7
20260510060605 50 89 5.0 17.0 0.00 0.00 0.00 83 1016.6
20260510054605 50 115 8.0 18.0 0.00 0.00 0.00 83 1016.7
20260510054105 50 112 6.0 15.0 0.00 0.00 0.00 83 1016.6
20260510053105 50 100 7.0 15.0 0.00 0.00 0.00 83 1016.7
20260510052607 50 100 3.0 14.0 0.00 0.00 0.00 83 1016.6
20260510045104 50 108 5.0 12.0 0.00 0.00 0.00 84 1016.5
20260510043605 49 116 5.0 17.0 0.00 0.00 0.00 84 1016.5
20260510041105 49 107 7.0 14.0 0.00 0.00 0.00 84 1016.6
20260510035605 49 107 6.0 12.0 0.00 0.00 0.00 84 1016.7
20260510034107 49 87 3.0 7.0 0.00 0.00 0.00 84 1016.8
20260510033107 49 110 3.0 8.0 0.00 0.00 0.00 84 1016.9
20260510031605 49 91 4.0 8.0 0.00 0.00 0.00 84 1016.9
20260510031104 49 97 3.0 8.0 0.00 0.00 0.00 84 1017.0
20260510030105 49 98 4.0 8.0 0.00 0.00 0.00 84 1017.0
20260510025106 49 97 3.0 10.0 0.00 0.00 0.00 83 1017.1
20260510024105 50 81 3.0 7.0 0.00 0.00 0.00 83 1017.1
20260510021605 50 79 3.0 10.0 0.00 0.00 0.00 82 1016.9
20260510020105 51 37 5.0 12.0 0.00 0.00 0.00 81 1016.9
20260510015104 51 120 4.0 8.0 0.00 0.00 0.00 80 1017.0
20260510013604 51 85 2.0 5.0 0.00 0.00 0.00 78 1017.1
20260510013104 51 86 2.0 8.0 0.00 0.00 0.00 77 1017.2
20260510012606 51 112 3.0 10.0 0.00 0.00 0.00 76 1017.2
20260510012105 52 88 4.0 12.0 0.00 0.00 0.00 75 1017.1
20260510005105 52 103 5.0 12.0 0.00 0.00 0.00 70 1017.0
20260510004605 53 108 4.0 10.0 0.00 0.00 0.00 69 1017.0
20260510002605 53 78 5.0 12.0 0.00 0.00 0.00 66 1017.0
20260510001104 54 115 6.0 14.0 0.00 0.00 0.00 67 1016.9
20260510000604 55 112 7.0 14.0 0.00 0.00 0.00 66 1016.9
20260510000104 55 106 5.0 12.0 0.00 0.00 0.00 66 1016.9
20260509234104 55 104 6.0 15.0 0.00 0.00 0.00 62 1016.8
20260509233605 56 121 7.0 15.0 0.00 0.00 0.00 61 1016.8
20260509230104 57 114 6.0 14.0 0.00 0.00 0.00 60 1016.9
20260509225105 57 115 6.0 13.0 0.00 0.00 0.00 58 1016.9
20260509224604 57 119 5.0 12.0 0.00 0.00 0.00 57 1016.8
20260509224104 57 113 6.0 12.0 0.00 0.00 0.00 57 1016.7
20260509223604 57 118 6.0 12.0 0.00 0.00 0.00 57 1016.7
20260509222105 58 124 6.0 12.0 0.00 0.00 0.00 56 1016.7
20260509221104 58 131 5.0 12.0 0.00 0.00 0.00 55 1016.7
20260509220104 58 125 7.0 14.0 0.00 0.00 0.00 54 1016.7
20260509215604 58 123 6.0 18.0 0.00 0.00 0.00 54 1016.8
20260509214104 58 127 4.0 8.0 0.00 0.00 0.00 52 1016.8
20260509213604 59 138 5.0 10.0 0.00 0.00 0.00 52 1016.8
20260509213105 59 147 5.0 8.0 0.00 0.00 0.00 51 1016.8
20260509212605 59 143 5.0 13.0 0.00 0.00 0.00 51 1016.7
20260509212105 59 141 7.0 13.0 0.00 0.00 0.00 50 1016.6
20260509210604 60 144 6.0 12.0 0.00 0.00 0.00 49 1016.3
20260509210106 60 138 7.0 13.0 0.00 0.00 0.00 49 1016.2
20260509205604 60 143 8.0 15.0 0.00 0.00 0.00 49 1016.3
20260509204605 60 146 5.0 9.0 0.00 0.00 0.00 49 1016.3
20260509204105 60 138 4.0 7.0 0.00 0.00 0.00 49 1016.3
20260509203605 60 132 6.0 12.0 0.00 0.00 0.00 50 1016.3
20260509203104 60 151 4.0 8.0 0.00 0.00 0.00 50 1016.3
20260509201104 60 153 7.0 12.0 0.00 0.00 0.00 50 1016.1
20260509200105 60 163 5.0 12.0 0.00 0.00 0.00 50 1016.0
20260509195605 60 155 6.0 12.0 0.00 0.00 0.00 50 1016.0
20260509195104 60 153 3.0 12.0 0.00 0.00 0.00 51 1016.0
20260509194605 61 186 5.0 12.0 0.00 0.00 0.00 51 1015.9
20260509192105 62 167 7.0 12.0 0.00 0.00 0.00 50 1015.6
20260509191105 62 153 7.0 13.0 0.00 0.00 0.00 50 1015.6
20260509185604 63 175 7.0 13.0 0.00 0.00 0.00 49 1015.6
20260509185105 63 182 7.0 12.0 0.00 0.00 0.00 49 1015.5
20260509183104 64 168 10.0 14.0 0.00 0.00 0.00 48 1015.3
20260509182604 64 170 8.0 12.0 0.00 0.00 0.00 47 1015.4
20260509182104 64 174 8.0 14.0 0.00 0.00 0.00 47 1015.4
20260509181606 64 178 7.0 13.0 0.00 0.00 0.00 47 1015.3
20260509181104 64 189 7.0 13.0 0.00 0.00 0.00 47 1015.3
20260509180604 65 163 10.0 15.0 0.00 0.00 0.00 46 1015.3
20260509175604 65 163 7.0 15.0 0.00 0.00 0.00 46 1015.2
20260509175104 65 156 7.0 12.0 0.00 0.00 0.00 45 1015.1
20260509172604 67 144 6.0 13.0 0.00 0.00 0.00 44 1014.9
20260509171604 68 147 8.0 15.0 0.00 0.00 0.00 43 1015.0
20260509171105 68 147 10.0 14.0 0.00 0.00 0.00 43 1015.0
20260509170105 68 144 8.0 15.0 0.00 0.00 0.00 42 1015.1
20260509165604 69 164 7.0 18.0 0.00 0.00 0.00 42 1015.1
20260509163604 70 159 9.0 14.0 0.00 0.00 0.00 42 1015.0
20260509163104 70 176 6.0 16.0 0.00 0.00 0.00 42 1015.0
20260509161105 70 166 9.0 13.0 0.00 0.00 0.00 43 1015.1
20260509155605 71 156 8.0 15.0 0.00 0.00 0.00 42 1015.2
20260509154604 71 169 9.0 16.0 0.00 0.00 0.00 42 1015.2
20260509151104 72 136 7.0 13.0 0.00 0.00 0.00 42 1015.2
20260509150105 72 135 7.0 15.0 0.00 0.00 0.00 42 1015.2
20260509145104 72 170 9.0 20.0 0.00 0.00 0.00 40 1015.2
20260509142604 73 170 6.0 16.0 0.00 0.00 0.00 41 1014.8
20260509142104 73 150 5.0 15.0 0.00 0.00 0.00 40 1014.8
20260509141605 72 143 7.0 12.0 0.00 0.00 0.00 40 1014.8
20260509135604 72 171 6.0 15.0 0.00 0.00 0.00 41 1015.0
20260509134103 72 194 7.0 12.0 0.00 0.00 0.00 40 1015.1
20260509133105 71 159 11.0 16.0 0.00 0.00 0.00 41 1015.1
20260509132604 72 139 6.0 12.0 0.00 0.00 0.00 41 1015.1
20260509131604 71 114 5.0 12.0 0.00 0.00 0.00 42 1015.2
20260509130604 72 126 6.0 14.0 0.00 0.00 0.00 40 1015.3
20260509130104 71 158 5.0 12.0 0.00 0.00 0.00 42 1015.4
20260509125604 71 121 7.0 15.0 0.00 0.00 0.00 42 1015.5